[[{"header":{"parameterUnit":"m.s-1","parameterCategory":1,"la1":30.2991,"la2":30.254,"lo1":-89.0895,"lo2":-89.0444,"dy":0.0017,"dx":0.0017,"nx":28,"ny":28,"refTime":"2025-07-25T03:00:00:Z","depth":0,"parameterNumber":2,"parameterNumberName":"U-component_of_WINDS"},"data":[0,0,0,0,0,0,0,0,0,0,0,0,0,0,0,0,0,0,0,0,0,0,0,0,0,0,0,0,0,0,0,0,0,0,0,0,0,0,0,0,0,0,0,0,0,0,0,0,0,0,0,0,0,0,0,0,0,0,-0.3887,-0.3889,0,-0.4057,-0.4059,-0.4061,-0.4153,-0.4153,-0.4153,-0.4153,-0.4323,-0.4327,-0.4332,0,0,0,0,0,0,0,0,0,0,0,0,0,-0.3636,-0.3641,-0.3887,-0.3889,-0.3891,-0.4057,-0.4059,-0.4062,-0.4153,-0.4153,-0.4153,-0.4153,-0.4322,-0.4327,-0.4332,0,0,0,0,0,0,0,0,0,0,0,0,0,-0.377,-0.3642,-0.3887,-0.3957,-0.3965,-0.4057,-0.4059,-0.4062,-0.4153,-0.4153,-0.4153,-0.4154,-0.432,-0.4326,-0.4333,-0.4366,0,0,-0.4353,-0.4355,0,0,0,0,0,0,0,0,-0.3762,-0.3779,-0.3944,-0.3952,-0.3961,-0.4084,-0.4033,-0.4164,-0.4153,-0.4081,-0.4153,-0.4154,-0.4243,-0.4256,-0.4287,-0.4374,-0.4382,-0.4353,-0.4357,-0.436,-0.4362,0,0,0,0,0,0,0,-0.3753,-0.3772,-0.3954,-0.3946,-0.3957,-0.3978,-0.3998,-0.4059,-0.4158,-0.4087,-0.4094,-0.4114,-0.4248,-0.428,-0.4292,-0.4384,-0.4353,-0.4359,-0.4363,-0.4365,-0.4508,-0.4508,0,0,0,0,0,0,-0.3733,-0.3764,-0.3949,-0.3959,-0.386,-0.3983,-0.4004,-0.4044,-0.4158,-0.4175,-0.4113,-0.4117,-0.4269,-0.4284,-0.4298,-0.4346,-0.436,-0.4366,-0.437,-0.4508,-0.4508,-0.4508,0,0,0,0,0,0,-0.3727,-0.3748,-0.3942,-0.3864,-0.389,-0.3987,-0.4031,-0.4047,-0.4081,-0.4177,-0.4195,-0.4129,-0.427,-0.4289,-0.4349,-0.4353,-0.4369,-0.4375,-0.4509,-0.4508,-0.4508,-0.4441,0,0,0,0,0,0,-0.3719,-0.3746,-0.3761,-0.3863,-0.3894,-0.3991,-0.4031,-0.4051,-0.4092,-0.4099,-0.4197,-0.4213,-0.4272,-0.4339,-0.4356,-0.4362,-0.438,-0.4509,-0.4509,-0.4508,-0.4443,-0.4439,-0.4434,0,0,0,0,0,-0.371,-0.3734,-0.3761,-0.3783,-0.3914,-0.3991,-0.4009,-0.4077,-0.4092,-0.4107,-0.4169,-0.421,-0.435,-0.4344,-0.4364,-0.4372,-0.4509,-0.4509,-0.4508,-0.4445,-0.4439,-0.4435,0,0,0,0,0,0,-0.3627,-0.3748,-0.378,-0.3838,-0.3904,-0.4007,-0.4028,-0.4069,-0.4131,-0.4135,-0.4216,-0.4237,-0.429,-0.4337,-0.4329,-0.4411,-0.4433,-0.4437,-0.4379,-0.4374,-0.437,-0.4357,-0.4385,0,0,0,0,0,-0.3616,-0.367,-0.3772,-0.3813,-0.3845,-0.393,-0.3966,-0.4014,-0.4085,-0.4113,-0.4179,-0.4246,-0.4305,-0.4342,-0.4401,-0.445,-0.4473,-0.4466,-0.4461,-0.4457,-0.4459,-0.4489,-0.4488,-0.4508,-0.4508,-0.4508,0,0,-0.3592,-0.3665,-0.3694,-0.3798,-0.3855,-0.3908,-0.3953,-0.4007,-0.4047,-0.4121,-0.4183,-0.4233,-0.4313,-0.4368,-0.4395,-0.4409,-0.4459,-0.4457,-0.4453,-0.4458,-0.4489,-0.4487,-0.4485,-0.4508,-0.4508,-0.4508,0,0,-0.3577,-0.3638,-0.3679,-0.3735,-0.3822,-0.3879,-0.3888,-0.3985,-0.4023,-0.4086,-0.4143,-0.419,-0.429,-0.4345,-0.4385,-0.4391,-0.4431,-0.4408,-0.4385,-0.4413,-0.4412,-0.4411,-0.4413,-0.4413,-0.441,-0.441,-0.441,0,-0.3537,-0.3621,-0.3695,-0.3746,-0.379,-0.3861,-0.3903,-0.3953,-0.4053,-0.4081,-0.4095,-0.4223,-0.4281,-0.435,-0.4352,-0.4382,-0.4395,-0.4398,-0.4406,-0.4406,-0.4406,-0.4409,-0.441,-0.4406,-0.4407,-0.4407,-0.4407,0,-0.3567,-0.3624,-0.3647,-0.3744,-0.3791,-0.3836,-0.3916,-0.3954,-0.3997,-0.4052,-0.4115,-0.4188,-0.4264,-0.4283,-0.4325,-0.4358,-0.4364,-0.4391,-0.4415,-0.44,-0.4404,-0.4406,-0.4402,-0.4403,-0.4404,-0.4405,0,0,-0.3505,-0.3643,-0.365,-0.3696,-0.3796,-0.3841,-0.3889,-0.3965,-0.3996,-0.4062,-0.4105,-0.4188,-0.4214,-0.426,-0.4308,-0.4333,-0.4334,-0.4357,-0.436,-0.4351,-0.4375,-0.4355,-0.4356,-0.436,-0.4361,-0.4361,-0.4369,0,-0.3505,-0.3598,-0.3666,-0.3733,-0.3786,-0.3854,-0.3897,-0.3962,-0.4014,-0.4066,-0.4123,-0.4181,-0.4211,-0.4239,-0.4266,-0.4328,-0.434,-0.4328,-0.44,-0.4402,-0.438,-0.4358,-0.4337,-0.4341,-0.4371,-0.4371,-0.4372,0,-0.3518,-0.3584,-0.3656,-0.3752,-0.3776,-0.3814,-0.3889,-0.3938,-0.4013,-0.4049,-0.4101,-0.4151,-0.4204,-0.4223,-0.4297,-0.4288,-0.4321,-0.4356,-0.4358,-0.4368,-0.4386,-0.4368,-0.4344,-0.4344,-0.4375,-0.4375,-0.4375,0,-0.3466,-0.3573,-0.3631,-0.3667,-0.3779,-0.3804,-0.3851,-0.3927,-0.3968,-0.4033,-0.4061,-0.413,-0.4168,-0.422,-0.4287,-0.4295,-0.4355,-0.4379,-0.4387,-0.4385,-0.4397,-0.4396,-0.4378,-0.4417,-0.4417,-0.4417,-0.4417,0,-0.346,-0.3501,-0.3609,-0.3644,-0.3693,-0.377,-0.3815,-0.3868,-0.3935,-0.3981,-0.4043,-0.4084,-0.417,-0.4221,-0.4274,-0.4328,-0.4344,-0.4375,-0.4388,-0.437,-0.4366,-0.4394,-0.4395,-0.4417,-0.4417,-0.4417,-0.4417,0,-0.3411,-0.3485,-0.3552,-0.3653,-0.3679,-0.3711,-0.3797,-0.3833,-0.3889,-0.3946,-0.3964,-0.4051,-0.4115,-0.4187,-0.4274,-0.4309,-0.436,-0.4379,-0.4335,-0.4343,-0.4347,-0.4346,-0.4348,-0.4352,-0.4386,-0.4385,-0.4385,0,-0.3402,-0.3436,-0.3541,-0.3578,-0.3624,-0.3681,-0.3724,-0.38,-0.3842,-0.3931,-0.3956,-0.4025,-0.4084,-0.4183,-0.4253,-0.432,-0.4342,-0.4338,-0.4353,-0.4333,-0.4343,-0.4341,-0.4345,-0.4334,-0.4333,-0.4333,-0.4332,0,-0.3379,-0.3415,-0.3475,-0.3548,-0.3598,-0.3659,-0.3722,-0.3748,-0.3837,-0.3881,-0.3948,-0.3994,-0.4084,-0.4151,-0.4227,-0.4275,-0.4318,-0.4327,-0.4333,-0.4314,-0.4288,-0.4303,-0.4325,-0.4327,-0.4327,-0.4328,-0.4328,-0.4328,-0.3352,-0.3385,-0.3465,-0.353,-0.3586,-0.3644,-0.3683,-0.3744,-0.3802,-0.3883,-0.3924,-0.399,-0.4064,-0.4171,-0.4217,-0.4269,-0.4284,-0.4291,-0.4293,-0.4294,-0.429,-0.4279,-0.4283,-0.4284,-0.4284,-0.4284,-0.4284,0,-0.3333,-0.3387,-0.3447,-0.3534,-0.3585,-0.3623,-0.3695,-0.3735,-0.3793,-0.3859,-0.3917,-0.3994,-0.406,-0.4135,-0.4205,-0.4233,-0.4254,-0.4249,-0.4248,-0.4258,-0.4272,-0.4261,-0.423,-0.423,-0.423,-0.423,-0.423,-0.423,-0.3329,-0.3389,-0.3433,-0.352,-0.3574,-0.3641,-0.3679,-0.3733,-0.3786,-0.387,-0.3925,-0.3975,-0.4044,-0.412,-0.4182,-0.4203,-0.4226,-0.4214,-0.424,-0.4253,-0.4257,-0.4261,-0.4251,-0.4219,-0.4219,-0.4222,-0.4222,-0.4222]},{"header":{"parameterUnit":"m.s-1","parameterCategory":1,"la1":30.2991,"la2":30.254,"lo1":-89.0895,"lo2":-89.0444,"dy":0.0017,"dx":0.0017,"nx":28,"ny":28,"refTime":"2025-07-25T03:00:00:Z","depth":0,"parameterNumber":3,"parameterNumberName":"V-component_of_WINDS"},"data":[0,0,0,0,0,0,0,0,0,0,0,0,0,0,0,0,0,0,0,0,0,0,0,0,0,0,0,0,0,0,0,0,0,0,0,0,0,0,0,0,0,0,0,0,0,0,0,0,0,0,0,0,0,0,0,0,0,0,4.8091,4.8091,0,4.8073,4.8073,4.8073,4.8031,4.803,4.803,4.8029,4.801,4.801,4.801,0,0,0,0,0,0,0,0,0,0,0,0,0,4.8089,4.8089,4.8091,4.8091,4.8091,4.8073,4.8073,4.8073,4.8031,4.803,4.8029,4.8028,4.8009,4.801,4.801,0,0,0,0,0,0,0,0,0,0,0,0,0,4.8082,4.8089,4.8091,4.8068,4.8066,4.8073,4.8073,4.8073,4.8032,4.803,4.8029,4.8028,4.8009,4.801,4.801,4.8039,0,0,4.8012,4.8012,0,0,0,0,0,0,0,0,4.8083,4.8082,4.8071,4.8069,4.8067,4.8053,4.8065,4.8061,4.8032,4.8044,4.8029,4.8027,4.8025,4.8024,4.8024,4.8038,4.8037,4.8012,4.8012,4.8012,4.8012,0,0,0,0,0,0,0,4.8083,4.8083,4.8084,4.8071,4.8069,4.8058,4.8056,4.8064,4.8042,4.8043,4.804,4.8039,4.8024,4.8023,4.8023,4.8037,4.8012,4.8012,4.8012,4.8012,4.8075,4.8076,0,0,0,0,0,0,4.8087,4.8084,4.8084,4.8083,4.8072,4.8059,4.8057,4.8059,4.8042,4.8038,4.804,4.8037,4.8023,4.8022,4.8022,4.8054,4.8012,4.8012,4.8013,4.8073,4.8075,4.8076,0,0,0,0,0,0,4.8087,4.8088,4.8085,4.8083,4.8082,4.8061,4.8064,4.8059,4.8059,4.8039,4.8035,4.8044,4.8022,4.8021,4.8035,4.8053,4.8013,4.8013,4.8072,4.8074,4.8076,4.8119,0,0,0,0,0,0,4.8087,4.8088,4.8098,4.8083,4.8082,4.8099,4.8065,4.806,4.806,4.8056,4.8042,4.8038,4.8021,4.8035,4.8036,4.8053,4.8013,4.807,4.8072,4.8075,4.8116,4.8122,4.8128,0,0,0,0,0,4.8087,4.8111,4.8099,4.8099,4.8095,4.81,4.8099,4.8079,4.8061,4.8072,4.806,4.8039,4.8052,4.8037,4.8037,4.8055,4.8069,4.8072,4.8075,4.8113,4.8121,4.8128,0,0,0,0,0,0,4.8128,4.8108,4.8095,4.8114,4.8109,4.8093,4.8105,4.8088,4.8087,4.8083,4.8058,4.8055,4.8073,4.8065,4.8049,4.8082,4.8057,4.806,4.8086,4.8093,4.8099,4.81,4.8014,0,0,0,0,0,4.8139,4.8145,4.8128,4.8146,4.8145,4.8126,4.8127,4.8112,4.8106,4.8103,4.8092,4.8086,4.8089,4.8091,4.8092,4.8116,4.8112,4.8128,4.8134,4.8139,4.8142,4.8154,4.8161,4.8087,4.8087,4.8086,0,0,4.8162,4.8152,4.8157,4.8154,4.8148,4.8155,4.8124,4.8132,4.8137,4.8104,4.8116,4.8108,4.81,4.8119,4.8127,4.8113,4.8162,4.8143,4.8147,4.8147,4.8158,4.8165,4.8171,4.8089,4.8088,4.8088,0,0,4.8207,4.82,4.8215,4.821,4.8202,4.819,4.8194,4.8181,4.8174,4.8186,4.8162,4.8168,4.8173,4.8168,4.8167,4.8213,4.8193,4.8214,4.8245,4.8257,4.8262,4.8268,4.8283,4.8289,4.8217,4.8217,4.8217,0,4.8236,4.8245,4.8225,4.8235,4.8234,4.8207,4.8222,4.8218,4.8211,4.8211,4.8197,4.8204,4.8196,4.8214,4.8225,4.8225,4.8229,4.8214,4.8263,4.8268,4.8273,4.8287,4.8293,4.822,4.8219,4.8219,4.8219,0,4.8281,4.8288,4.8301,4.8296,4.8297,4.8309,4.8292,4.8295,4.8282,4.8271,4.8284,4.8275,4.8274,4.8278,4.8264,4.8294,4.8285,4.8268,4.8241,4.8283,4.8296,4.8302,4.8223,4.8222,4.8222,4.8221,0,0,4.8348,4.8333,4.8338,4.8335,4.8326,4.8331,4.8343,4.8343,4.8346,4.8343,4.8352,4.8359,4.8343,4.8341,4.8327,4.8338,4.8374,4.8318,4.8318,4.8328,4.8406,4.8419,4.8425,4.8362,4.8363,4.8364,4.8407,0,4.8389,4.8408,4.8392,4.8414,4.842,4.8395,4.8406,4.8401,4.8392,4.8396,4.8386,4.8391,4.837,4.8369,4.8379,4.8368,4.8389,4.8365,4.837,4.837,4.8371,4.8433,4.8445,4.8486,4.8412,4.8413,4.8413,0,4.8439,4.8439,4.8462,4.8452,4.8454,4.8464,4.8463,4.8468,4.8462,4.8455,4.8455,4.8438,4.8449,4.8425,4.844,4.8424,4.8425,4.8421,4.8422,4.842,4.8393,4.8431,4.8498,4.8504,4.8422,4.8421,4.842,0,4.8485,4.8491,4.8505,4.8504,4.8493,4.85,4.8496,4.849,4.8491,4.8491,4.8492,4.8493,4.8493,4.8494,4.8479,4.8463,4.8496,4.847,4.8489,4.849,4.8496,4.8495,4.8562,4.8499,4.8499,4.8499,4.8499,0,4.8531,4.8546,4.8526,4.8534,4.8551,4.8532,4.8549,4.8542,4.8537,4.8544,4.8524,4.8531,4.851,4.8515,4.8503,4.8518,4.8518,4.8512,4.8509,4.8513,4.8514,4.8513,4.8509,4.8501,4.85,4.85,4.85,0,4.8584,4.8571,4.8585,4.8574,4.8572,4.8584,4.8575,4.8583,4.8574,4.8583,4.8584,4.857,4.8575,4.856,4.8562,4.8554,4.8575,4.8567,4.8577,4.8574,4.8594,4.8592,4.8661,4.8669,4.8602,4.8603,4.8603,0,4.8614,4.8625,4.8616,4.8619,4.8617,4.8623,4.8625,4.8608,4.8611,4.8607,4.8615,4.8619,4.8621,4.863,4.862,4.8622,4.8613,4.8638,4.8613,4.8618,4.8613,4.8612,4.8613,4.8642,4.8643,4.8644,4.8644,0,4.8668,4.8661,4.8665,4.8667,4.867,4.8671,4.867,4.8674,4.8656,4.866,4.8666,4.8668,4.8671,4.8675,4.8676,4.8671,4.8655,4.8652,4.8657,4.8661,4.8665,4.8662,4.8589,4.865,4.865,4.8649,4.8649,4.8649,4.8709,4.8718,4.8714,4.8719,4.8717,4.8717,4.8724,4.8716,4.8721,4.8722,4.8713,4.8721,4.8716,4.8715,4.8713,4.8719,4.8707,4.8714,4.8715,4.8717,4.872,4.8666,4.8719,4.8719,4.8718,4.8718,4.8718,0,4.8762,4.8758,4.8763,4.8763,4.8768,4.8753,4.8752,4.8756,4.8764,4.8762,4.8765,4.8771,4.8776,4.8766,4.8769,4.8776,4.8768,4.8777,4.8776,4.8775,4.873,4.8726,4.8783,4.8783,4.8783,4.8783,4.8783,4.8783,4.8789,4.8804,4.8797,4.8811,4.8807,4.8815,4.8816,4.8816,4.8814,4.8823,4.8827,4.8821,4.8816,4.8819,4.8822,4.8819,4.8821,4.8832,4.8826,4.8784,4.8778,4.8772,4.8767,4.8833,4.8833,4.887,4.8871,4.8871]}]]